Tracking 27112 objects as of 27-Mar-2023
HD Live streaming from Space Station
objects crossing your sky now

STARLINK-3697

Track STARLINK-3697 now!
10-day predictions
STARLINK-3697 is classified as:


NORAD ID: 51962
Int'l Code: 2022-025G
Perigee: 548.1 km
Apogee: 550.4 km
Inclination: 53.2 °
Period: 95.5 minutes
Semi major axis: 6920 km
RCS: Unknown
Launch date: March 9, 2022
Source: United States (US)
Launch site: AIR FORCE EASTERN TEST RANGE (AFETR)
Your satellite tracking list
Your tracking list is empty




NASA's NSSDC Master Catalog

Two Line Element Set (TLE):
1 51962U 22025G   23085.81605097  .00016832  00000-0  10961-2 0  9997
2 51962  53.1795 192.4646 0001704  78.3515 281.7667 15.08059601 58328
Source of the keplerian elements: AFSPC